TimeCDT,TemperatureF,Dew PointF,Humidity,Sea Level PressureIn,VisibilityMPH,Wind Direction,Wind SpeedMPH,Gust SpeedMPH,PrecipitationIn,Events,Conditions,WindDirDegrees,DateUTC
12:14 AM,39.2,23.0,52,29.84,10.0,WSW,4.6,-,N/A,,Clear,240,2012-10-08 05:14:00
12:33 AM,39.2,21.2,49,29.84,10.0,WSW,4.6,-,N/A,,Clear,240,2012-10-08 05:33:00
12:54 AM,39.2,24.8,56,29.83,10.0,WSW,3.5,-,N/A,,Clear,240,2012-10-08 05:54:00
1:14 AM,39.2,23.0,52,29.83,10.0,WSW,3.5,-,N/A,,Clear,240,2012-10-08 06:14:00
1:33 AM,39.2,23.0,52,29.83,10.0,SW,4.6,-,N/A,,Clear,230,2012-10-08 06:33:00
1:54 AM,37.4,24.8,60,29.83,10.0,WSW,4.6,-,N/A,,Clear,250,2012-10-08 06:54:00
2:13 AM,37.4,24.8,60,29.82,10.0,WSW,5.8,-,N/A,,Clear,240,2012-10-08 07:13:00
2:33 AM,37.4,24.8,60,29.82,10.0,WSW,4.6,-,N/A,,Clear,240,2012-10-08 07:33:00
2:54 AM,37.4,24.8,60,29.81,10.0,WSW,5.8,-,N/A,,Clear,250,2012-10-08 07:54:00
3:13 AM,37.4,23.0,56,29.80,10.0,West,6.9,-,N/A,,Clear,260,2012-10-08 08:13:00
3:33 AM,37.4,23.0,56,29.80,10.0,WSW,4.6,-,N/A,,Clear,240,2012-10-08 08:33:00
3:54 AM,37.4,24.8,60,29.79,10.0,SW,4.6,-,N/A,,Clear,230,2012-10-08 08:54:00
4:13 AM,37.4,24.8,60,29.79,10.0,SW,4.6,-,N/A,,Clear,230,2012-10-08 09:13:00
4:33 AM,37.4,24.8,60,29.79,10.0,Calm,Calm,-,N/A,,Clear,0,2012-10-08 09:33:00
4:54 AM,35.6,23.0,60,29.77,10.0,SSW,3.5,-,N/A,,Clear,200,2012-10-08 09:54:00
5:13 AM,37.4,23.0,56,29.77,10.0,Calm,Calm,-,N/A,,Clear,0,2012-10-08 10:13:00
5:33 AM,37.4,24.8,60,29.76,10.0,Calm,Calm,-,N/A,,Clear,0,2012-10-08 10:33:00
5:54 AM,37.4,24.8,60,29.76,10.0,Calm,Calm,-,N/A,,Clear,0,2012-10-08 10:54:00
6:13 AM,37.4,24.8,60,29.76,10.0,WSW,3.5,-,N/A,,Clear,250,2012-10-08 11:13:00
6:33 AM,37.4,24.8,60,29.76,10.0,Calm,Calm,-,N/A,,Clear,0,2012-10-08 11:33:00
6:54 AM,37.4,24.8,60,29.75,10.0,Calm,Calm,-,N/A,,Scattered Clouds,0,2012-10-08 11:54:00
7:13 AM,37.4,24.8,60,29.75,10.0,Calm,Calm,-,N/A,,Scattered Clouds,0,2012-10-08 12:13:00
7:33 AM,37.4,24.8,60,29.74,10.0,Calm,Calm,-,N/A,,Scattered Clouds,0,2012-10-08 12:33:00
7:54 AM,37.4,24.8,60,29.75,10.0,Calm,Calm,-,N/A,,Scattered Clouds,0,2012-10-08 12:54:00
8:13 AM,37.4,24.8,60,29.75,10.0,WSW,3.5,-,N/A,,Scattered Clouds,240,2012-10-08 13:13:00
8:34 AM,39.2,24.8,56,29.75,10.0,SW,3.5,-,N/A,,Clear,230,2012-10-08 13:34:00
8:54 AM,39.2,26.6,61,29.74,10.0,SSW,3.5,-,N/A,,Scattered Clouds,210,2012-10-08 13:54:00
9:13 AM,39.2,26.6,61,29.74,10.0,Calm,Calm,-,N/A,,Scattered Clouds,0,2012-10-08 14:13:00
9:34 AM,41.0,26.6,57,29.73,10.0,Calm,Calm,-,N/A,,Scattered Clouds,0,2012-10-08 14:34:00
9:54 AM,42.8,26.6,53,29.72,10.0,South,8.1,-,N/A,,Clear,190,2012-10-08 14:54:00
10:13 AM,44.6,26.6,49,29.72,10.0,South,5.8,-,N/A,,Scattered Clouds,190,2012-10-08 15:13:00
10:34 AM,44.6,26.6,49,29.71,10.0,SSW,8.1,-,N/A,,Scattered Clouds,210,2012-10-08 15:34:00
10:54 AM,44.6,28.4,53,29.70,10.0,South,8.1,-,N/A,,Mostly Cloudy,190,2012-10-08 15:54:00
11:13 AM,44.6,26.6,49,29.69,10.0,South,5.8,-,N/A,,Overcast,190,2012-10-08 16:13:00
11:34 AM,46.4,26.6,46,29.68,10.0,SSW,9.2,-,N/A,,Scattered Clouds,210,2012-10-08 16:34:00
11:54 AM,46.4,26.6,46,29.67,10.0,SSE,3.5,-,N/A,,Scattered Clouds,150,2012-10-08 16:54:00
12:13 PM,48.2,28.4,46,29.66,10.0,South,6.9,-,N/A,,Mostly Cloudy,190,2012-10-08 17:13:00
12:53 PM,50.0,28.4,43,29.64,10.0,South,3.5,-,N/A,,Mostly Cloudy,190,2012-10-08 17:53:00
1:14 PM,50.0,30.2,47,29.62,10.0,North,4.6,-,N/A,,Scattered Clouds,10,2012-10-08 18:14:00
1:34 PM,46.4,37.4,71,29.61,10.0,NE,5.8,-,N/A,,Scattered Clouds,50,2012-10-08 18:34:00
1:53 PM,46.4,35.6,66,29.60,10.0,NE,6.9,-,N/A,,Scattered Clouds,50,2012-10-08 18:53:00
2:14 PM,46.4,37.4,71,29.60,10.0,ENE,6.9,-,N/A,,Scattered Clouds,60,2012-10-08 19:14:00
2:33 PM,46.4,37.4,71,29.59,10.0,NE,9.2,-,N/A,,Drizzle,50,2012-10-08 19:33:00
2:54 PM,48.2,39.2,71,29.59,10.0,ENE,5.8,-,N/A,,Light Drizzle,60,2012-10-08 19:54:00
3:13 PM,51.8,35.6,54,29.59,10.0,South,11.5,-,N/A,,Drizzle,180,2012-10-08 20:13:00
3:34 PM,48.2,37.4,66,29.56,7.0,SE,4.6,-,N/A,Rain,Light Rain,140,2012-10-08 20:34:00
3:54 PM,48.2,39.2,71,29.58,10.0,SW,4.6,-,N/A,,Drizzle,230,2012-10-08 20:54:00
4:13 PM,48.2,41.0,76,29.57,10.0,Calm,Calm,-,N/A,,Light Drizzle,0,2012-10-08 21:13:00
4:33 PM,46.4,41.0,81,29.57,5.0,Calm,Calm,-,N/A,Rain,Rain,0,2012-10-08 21:33:00
4:54 PM,46.4,41.0,81,29.56,10.0,Calm,Calm,-,N/A,Rain,Light Rain,0,2012-10-08 21:54:00
5:13 PM,44.6,41.0,87,29.57,10.0,North,6.9,-,N/A,Rain,Light Rain,360,2012-10-08 22:13:00
5:34 PM,44.6,39.2,81,29.57,10.0,NNE,9.2,-,N/A,,Drizzle,30,2012-10-08 22:34:00
5:53 PM,44.6,41.0,87,29.56,10.0,NE,8.1,-,N/A,,Drizzle,40,2012-10-08 22:53:00
6:14 PM,44.6,41.0,87,29.57,10.0,NNE,6.9,-,N/A,,Overcast,30,2012-10-08 23:14:00
6:33 PM,44.6,39.2,81,29.57,10.0,North,4.6,-,N/A,,Overcast,360,2012-10-08 23:33:00
7:13 PM,42.8,39.2,87,29.58,10.0,Calm,Calm,-,N/A,,Overcast,0,2012-10-09 00:13:00
7:34 PM,44.6,39.2,81,29.58,10.0,Calm,Calm,-,N/A,,Overcast,0,2012-10-09 00:34:00
7:53 PM,44.6,39.2,81,29.58,10.0,Calm,Calm,-,N/A,,Overcast,0,2012-10-09 00:53:00
8:13 PM,44.6,41.0,87,29.59,10.0,Calm,Calm,-,N/A,,Overcast,0,2012-10-09 01:13:00
8:34 PM,44.6,41.0,87,29.59,10.0,Calm,Calm,-,N/A,,Overcast,0,2012-10-09 01:34:00
8:53 PM,48.2,44.6,87,29.59,10.0,SW,9.2,-,N/A,,Overcast,230,2012-10-09 01:53:00
9:13 PM,50.0,44.6,82,29.60,10.0,WSW,15.0,21.9,N/A,,Overcast,250,2012-10-09 02:13:00
9:33 PM,48.2,42.8,82,29.60,10.0,West,18.4,26.5,N/A,,Mostly Cloudy,270,2012-10-09 02:33:00
9:54 PM,48.2,41.0,76,29.62,10.0,West,18.4,26.5,N/A,,Scattered Clouds,270,2012-10-09 02:54:00
10:13 PM,48.2,39.2,71,29.63,10.0,WSW,17.3,-,N/A,,Clear,250,2012-10-09 03:13:00
10:54 PM,48.2,39.2,71,29.64,10.0,West,13.8,-,N/A,,Clear,260,2012-10-09 03:54:00
11:34 PM,46.4,39.2,76,29.64,10.0,SW,8.1,-,N/A,,Clear,220,2012-10-09 04:34:00
11:54 PM,44.6,39.2,81,29.64,10.0,SW,8.1,-,N/A,,Clear,220,2012-10-09 04:54:00